Location: Batang Balui
(2.7000°N, 113.7833°E)
Time: 23:43:57
(UTC+00:00)

IRAS Rocket - Pass Details

Date: 03 December 2021
Orbit: 848 x 877 km, 100.1° (Epoch: 27 January)

Event Time Altitude Azimuth Distance (km) Brightness Sun altitude
Rises 10:53:09 0° 14° (NNE) 3,410 7.0 -9.9°
Reaches altitude 10° 10:55:30 10° 14° (NNE) 2,480 6.3 -10.5°
Maximum altitude 11:01:01 89° 290° (WNW) 864 4.3 -11.7°
Drops below altitude 10° 11:06:36 10° 194° (SSW) 2,507 7.2 -13.0°
Sets 11:08:59 0° 194° (SSW) 3,450 7.9 -13.6°
